Year,Month,Day,Hour,Minute,Value (Times are PST for temperature in C)
2009,08,08,00,00,14.10
2009,08,08,00,01,14.10
2009,08,08,00,02,14.10
2009,08,08,00,03,14.10
2009,08,08,00,04,14.00
2009,08,08,00,05,14.00
2009,08,08,00,06,14.00
2009,08,08,00,07,13.90
2009,08,08,00,08,13.90
2009,08,08,00,09,13.90
2009,08,08,00,10,13.90
2009,08,08,00,11,13.90
2009,08,08,00,12,13.90
2009,08,08,00,13,13.90
2009,08,08,00,14,13.90
2009,08,08,00,15,13.80
2009,08,08,00,16,13.80
2009,08,08,00,17,13.80
2009,08,08,00,18,13.80
2009,08,08,00,19,13.80
2009,08,08,00,20,13.80
2009,08,08,00,21,13.80
2009,08,08,00,22,13.80
2009,08,08,00,23,13.80
2009,08,08,00,24,13.80
2009,08,08,00,25,13.80
2009,08,08,00,26,13.70
2009,08,08,00,27,13.70
2009,08,08,00,28,13.70
2009,08,08,00,29,13.70
2009,08,08,00,30,13.70
2009,08,08,00,31,13.70
2009,08,08,00,32,13.70
2009,08,08,00,33,13.70
2009,08,08,00,34,13.70
2009,08,08,00,35,13.70
2009,08,08,00,36,13.70
2009,08,08,00,37,13.70
2009,08,08,00,38,13.70
2009,08,08,00,39,13.70
2009,08,08,00,40,13.70
2009,08,08,00,41,13.70
2009,08,08,00,42,13.60
2009,08,08,00,43,13.60
2009,08,08,00,44,13.60
2009,08,08,00,45,13.60
2009,08,08,00,46,13.60
2009,08,08,00,47,13.60
2009,08,08,00,48,13.60
2009,08,08,00,49,13.60
2009,08,08,00,50,13.60
2009,08,08,00,51,13.60
2009,08,08,00,52,13.60
2009,08,08,00,53,13.50
2009,08,08,00,54,13.50
2009,08,08,00,55,13.50
2009,08,08,00,56,13.50
2009,08,08,00,57,13.40
2009,08,08,00,58,13.40
2009,08,08,00,59,13.50
2009,08,08,01,00,13.50
2009,08,08,01,01,13.50
2009,08,08,01,02,13.50
2009,08,08,01,03,13.50
2009,08,08,01,04,13.50
2009,08,08,01,05,13.50
2009,08,08,01,06,13.50
2009,08,08,01,07,13.50
2009,08,08,01,08,13.40
2009,08,08,01,09,13.40
2009,08,08,01,10,13.40
2009,08,08,01,11,13.40
2009,08,08,01,12,13.40
2009,08,08,01,13,13.40
2009,08,08,01,14,13.40
2009,08,08,01,15,13.30
2009,08,08,01,16,13.30
2009,08,08,01,17,13.30
2009,08,08,01,18,13.30
2009,08,08,01,19,13.30
2009,08,08,01,20,13.20
2009,08,08,01,21,13.20
2009,08,08,01,22,13.20
2009,08,08,01,23,13.20
2009,08,08,01,24,13.20
2009,08,08,01,25,13.20
2009,08,08,01,26,13.20
2009,08,08,01,27,13.10
2009,08,08,01,28,13.10
2009,08,08,01,29,13.10
2009,08,08,01,30,13.10
2009,08,08,01,31,13.10
2009,08,08,01,32,13.10
2009,08,08,01,33,13.10
2009,08,08,01,34,13.10
2009,08,08,01,35,13.10
2009,08,08,01,36,13.10
2009,08,08,01,37,13.10
2009,08,08,01,38,13.10
2009,08,08,01,39,13.10
2009,08,08,01,40,13.10
2009,08,08,01,41,13.10
2009,08,08,01,42,13.10
2009,08,08,01,43,13.10
2009,08,08,01,44,13.10
2009,08,08,01,45,13.10
2009,08,08,01,46,13.10
2009,08,08,01,47,13.10
2009,08,08,01,48,13.00
2009,08,08,01,49,13.00
2009,08,08,01,50,13.00
2009,08,08,01,51,13.00
2009,08,08,01,52,13.00
2009,08,08,01,53,13.00
2009,08,08,01,54,12.90
2009,08,08,01,55,12.90
2009,08,08,01,56,12.90
2009,08,08,01,57,12.90
2009,08,08,01,58,12.90
2009,08,08,01,59,12.90
2009,08,08,02,00,12.90
2009,08,08,02,01,12.90
2009,08,08,02,02,12.80
2009,08,08,02,03,12.80
2009,08,08,02,04,12.80
2009,08,08,02,05,12.80
2009,08,08,02,06,12.80
2009,08,08,02,07,12.80
2009,08,08,02,08,12.80
2009,08,08,02,09,12.80
2009,08,08,02,10,12.80
2009,08,08,02,11,12.80
2009,08,08,02,12,12.80
2009,08,08,02,13,12.80
2009,08,08,02,14,12.80
2009,08,08,02,15,12.80
2009,08,08,02,16,12.80
2009,08,08,02,17,12.80
2009,08,08,02,18,12.80
2009,08,08,02,19,12.80
2009,08,08,02,20,12.80
2009,08,08,02,21,12.80
2009,08,08,02,22,12.80
2009,08,08,02,23,12.80
2009,08,08,02,24,12.80
2009,08,08,02,25,12.80
2009,08,08,02,26,12.80
2009,08,08,02,27,12.80
2009,08,08,02,28,12.70
2009,08,08,02,29,12.70
2009,08,08,02,30,12.70
2009,08,08,02,31,12.70
2009,08,08,02,32,12.70
2009,08,08,02,33,12.70
2009,08,08,02,34,12.70
2009,08,08,02,35,12.70
2009,08,08,02,36,12.70
2009,08,08,02,37,12.70
2009,08,08,02,38,12.70
2009,08,08,02,39,12.70
2009,08,08,02,40,12.60
2009,08,08,02,41,12.60
2009,08,08,02,42,12.60
2009,08,08,02,43,12.60
2009,08,08,02,44,12.60
2009,08,08,02,45,12.60
2009,08,08,02,46,12.60
2009,08,08,02,47,12.60
2009,08,08,02,48,12.60
2009,08,08,02,49,12.60
2009,08,08,02,50,12.60
2009,08,08,02,51,12.60
2009,08,08,02,52,12.60
2009,08,08,02,53,12.60
2009,08,08,02,54,12.60
2009,08,08,02,55,12.60
2009,08,08,02,56,12.60
2009,08,08,02,57,12.60
2009,08,08,02,58,12.60
2009,08,08,02,59,12.60
2009,08,08,03,00,12.60
2009,08,08,03,01,12.60
2009,08,08,03,02,12.60
2009,08,08,03,03,12.60
2009,08,08,03,04,12.60
2009,08,08,03,05,12.60
2009,08,08,03,06,12.50
2009,08,08,03,07,12.50
2009,08,08,03,08,12.50
2009,08,08,03,09,12.50
2009,08,08,03,10,12.50
2009,08,08,03,11,12.50
2009,08,08,03,12,12.50
2009,08,08,03,13,12.50
2009,08,08,03,14,12.50
2009,08,08,03,15,12.50
2009,08,08,03,16,12.50
2009,08,08,03,17,12.50
2009,08,08,03,18,12.50
2009,08,08,03,19,12.50
2009,08,08,03,20,12.50
2009,08,08,03,21,12.50
2009,08,08,03,22,12.40
2009,08,08,03,23,12.40
2009,08,08,03,24,12.40
2009,08,08,03,25,12.40
2009,08,08,03,26,12.40
2009,08,08,03,27,12.40
2009,08,08,03,28,12.40
2009,08,08,03,29,12.40
2009,08,08,03,30,12.40
2009,08,08,03,31,12.40
2009,08,08,03,32,12.40
2009,08,08,03,33,12.40
2009,08,08,03,34,12.30
2009,08,08,03,35,12.30
2009,08,08,03,36,12.30
2009,08,08,03,37,12.30
2009,08,08,03,38,12.30
2009,08,08,03,39,12.30
2009,08,08,03,40,12.30
2009,08,08,03,41,12.30
2009,08,08,03,42,12.30
2009,08,08,03,43,12.30
2009,08,08,03,44,12.30
2009,08,08,03,45,12.30
2009,08,08,03,46,12.30
2009,08,08,03,47,12.30
2009,08,08,03,48,12.20
2009,08,08,03,49,12.20
2009,08,08,03,50,12.20
2009,08,08,03,51,12.20
2009,08,08,03,52,12.20
2009,08,08,03,53,12.20
2009,08,08,03,54,12.20
2009,08,08,03,55,12.20
2009,08,08,03,56,12.20
2009,08,08,03,57,12.10
2009,08,08,03,58,12.10
2009,08,08,03,59,12.10
2009,08,08,04,00,12.10
2009,08,08,04,01,12.10
2009,08,08,04,02,12.10
2009,08,08,04,03,12.00
2009,08,08,04,04,12.00
2009,08,08,04,05,12.00
2009,08,08,04,06,12.00
2009,08,08,04,07,12.00
2009,08,08,04,08,11.90
2009,08,08,04,09,11.90
2009,08,08,04,10,11.90
2009,08,08,04,11,11.90
2009,08,08,04,12,11.90
2009,08,08,04,13,11.90
2009,08,08,04,14,11.90
2009,08,08,04,15,11.90
2009,08,08,04,16,11.90
2009,08,08,04,17,11.80
2009,08,08,04,18,11.80
2009,08,08,04,19,11.80
2009,08,08,04,20,11.80
2009,08,08,04,21,11.80
2009,08,08,04,22,11.80
2009,08,08,04,23,11.80
2009,08,08,04,24,11.80
2009,08,08,04,25,11.80
2009,08,08,04,26,11.80
2009,08,08,04,27,11.80
2009,08,08,04,28,11.80
2009,08,08,04,29,11.80
2009,08,08,04,30,11.80
2009,08,08,04,31,11.80
2009,08,08,04,32,11.80
2009,08,08,04,33,11.80
2009,08,08,04,34,11.80
2009,08,08,04,35,11.80
2009,08,08,04,36,11.80
2009,08,08,04,37,11.80
2009,08,08,04,38,11.80
2009,08,08,04,39,11.80
2009,08,08,04,40,11.80
2009,08,08,04,41,11.80
2009,08,08,04,42,11.80
2009,08,08,04,43,11.80
2009,08,08,04,44,11.80
2009,08,08,04,45,11.80
2009,08,08,04,46,11.80
2009,08,08,04,47,11.80
2009,08,08,04,48,11.80
2009,08,08,04,49,11.80
2009,08,08,04,50,11.80
2009,08,08,04,51,11.80
2009,08,08,04,52,11.80
2009,08,08,04,53,11.80
2009,08,08,04,54,11.80
2009,08,08,04,55,11.80
2009,08,08,04,56,11.80
2009,08,08,04,57,11.80
2009,08,08,04,58,11.80
2009,08,08,04,59,11.80
2009,08,08,05,00,11.80
2009,08,08,05,01,11.80
2009,08,08,05,02,11.80
2009,08,08,05,03,11.80
2009,08,08,05,04,11.80
2009,08,08,05,05,11.80
2009,08,08,05,06,11.80
2009,08,08,05,07,11.80
2009,08,08,05,08,11.80
2009,08,08,05,09,11.80
2009,08,08,05,10,11.80
2009,08,08,05,11,11.80
2009,08,08,05,12,11.80
2009,08,08,05,13,11.80
2009,08,08,05,14,11.90
2009,08,08,05,15,11.90
2009,08,08,05,16,11.90
2009,08,08,05,17,11.90
2009,08,08,05,18,11.90
2009,08,08,05,19,11.90
2009,08,08,05,20,11.90
2009,08,08,05,21,11.90
2009,08,08,05,22,11.90
2009,08,08,05,23,11.90
2009,08,08,05,24,11.90
2009,08,08,05,25,11.90
2009,08,08,05,26,12.00
2009,08,08,05,27,12.00
2009,08,08,05,28,12.00
2009,08,08,05,29,12.00
2009,08,08,05,30,12.00
2009,08,08,05,31,12.10
2009,08,08,05,32,12.10
2009,08,08,05,33,12.10
2009,08,08,05,34,12.10
2009,08,08,05,35,12.10
2009,08,08,05,36,12.10
2009,08,08,05,37,12.10
2009,08,08,05,38,12.10
2009,08,08,05,39,12.10
2009,08,08,05,40,12.10
2009,08,08,05,41,12.10
2009,08,08,05,42,12.10
2009,08,08,05,43,12.10
2009,08,08,05,44,12.10
2009,08,08,05,45,12.10
2009,08,08,05,46,12.20
2009,08,08,05,47,12.20
2009,08,08,05,48,12.20
2009,08,08,05,49,12.20
2009,08,08,05,50,12.20
2009,08,08,05,51,12.20
2009,08,08,05,52,12.20
2009,08,08,05,53,12.20
2009,08,08,05,54,12.20
2009,08,08,05,55,12.20
2009,08,08,05,56,12.20
2009,08,08,05,57,12.20
2009,08,08,05,58,12.20
2009,08,08,05,59,12.20
2009,08,08,06,00,12.20
2009,08,08,06,01,12.20
2009,08,08,06,02,12.20
2009,08,08,06,03,12.20
2009,08,08,06,04,12.20
2009,08,08,06,05,12.20
2009,08,08,06,06,12.30
2009,08,08,06,07,12.30
2009,08,08,06,08,12.30
2009,08,08,06,09,12.30
2009,08,08,06,10,12.30
2009,08,08,06,11,12.30
2009,08,08,06,12,12.30
2009,08,08,06,13,12.30
2009,08,08,06,14,12.30
2009,08,08,06,15,12.30
2009,08,08,06,16,12.30
2009,08,08,06,17,12.30
2009,08,08,06,18,12.30
2009,08,08,06,19,12.30
2009,08,08,06,20,12.40
2009,08,08,06,21,12.40
2009,08,08,06,22,12.40
2009,08,08,06,23,12.40
2009,08,08,06,24,12.40
2009,08,08,06,25,12.40
2009,08,08,06,26,12.40
2009,08,08,06,27,12.40
2009,08,08,06,28,12.40
2009,08,08,06,29,12.40
2009,08,08,06,30,12.40
2009,08,08,06,31,12.40
2009,08,08,06,32,12.40
2009,08,08,06,33,12.40
2009,08,08,06,34,12.40
2009,08,08,06,35,12.40
2009,08,08,06,36,12.40
2009,08,08,06,37,12.50
2009,08,08,06,38,12.50
2009,08,08,06,39,12.50
2009,08,08,06,40,12.50
2009,08,08,06,41,12.50
2009,08,08,06,42,12.50
2009,08,08,06,43,12.50
2009,08,08,06,44,12.60
2009,08,08,06,45,12.60
2009,08,08,06,46,12.60
2009,08,08,06,47,12.60
2009,08,08,06,48,12.60
2009,08,08,06,49,12.60
2009,08,08,06,50,12.60
2009,08,08,06,51,12.70
2009,08,08,06,52,12.70
2009,08,08,06,53,12.70
2009,08,08,06,54,12.70
2009,08,08,06,55,12.70
2009,08,08,06,56,12.70
2009,08,08,06,57,12.80
2009,08,08,06,58,12.80
2009,08,08,06,59,12.80
2009,08,08,07,00,12.80
2009,08,08,07,01,12.80
2009,08,08,07,02,12.80
2009,08,08,07,03,12.80
2009,08,08,07,04,12.80
2009,08,08,07,05,12.80
2009,08,08,07,06,12.80
2009,08,08,07,07,12.90
2009,08,08,07,08,12.90
2009,08,08,07,09,12.90
2009,08,08,07,10,12.90
2009,08,08,07,11,12.90
2009,08,08,07,12,12.90
2009,08,08,07,13,12.90
2009,08,08,07,14,13.00
2009,08,08,07,15,13.00
2009,08,08,07,16,13.00
2009,08,08,07,17,13.00
2009,08,08,07,18,13.10
2009,08,08,07,19,13.10
2009,08,08,07,20,13.10
2009,08,08,07,21,13.10
2009,08,08,07,22,13.10
2009,08,08,07,23,13.10
2009,08,08,07,24,13.10
2009,08,08,07,25,13.10
2009,08,08,07,26,13.20
2009,08,08,07,27,13.20
2009,08,08,07,28,13.20
2009,08,08,07,29,13.20
2009,08,08,07,30,13.20
2009,08,08,07,31,13.20
2009,08,08,07,32,13.20
2009,08,08,07,33,13.20
2009,08,08,07,34,13.20
2009,08,08,07,35,13.30
2009,08,08,07,36,13.30
2009,08,08,07,37,13.30
2009,08,08,07,38,13.30
2009,08,08,07,39,13.30
2009,08,08,07,40,13.40
2009,08,08,07,41,13.40
2009,08,08,07,42,13.40
2009,08,08,07,43,13.40
2009,08,08,07,44,13.40
2009,08,08,07,45,13.40
2009,08,08,07,46,13.40
2009,08,08,07,47,13.40
2009,08,08,07,48,13.40
2009,08,08,07,49,13.40
2009,08,08,07,50,13.40
2009,08,08,07,51,13.40
2009,08,08,07,52,13.50
2009,08,08,07,53,13.50
2009,08,08,07,54,13.40
2009,08,08,07,55,13.50
2009,08,08,07,56,13.50
2009,08,08,07,57,13.50
2009,08,08,07,58,13.60
2009,08,08,07,59,13.60
2009,08,08,08,00,13.60
2009,08,08,08,01,13.60
2009,08,08,08,02,13.70
2009,08,08,08,03,13.70
2009,08,08,08,04,13.70
2009,08,08,08,05,13.70
2009,08,08,08,06,13.70
2009,08,08,08,07,13.80
2009,08,08,08,08,13.80
2009,08,08,08,09,13.80
2009,08,08,08,10,13.90
2009,08,08,08,11,13.90
2009,08,08,08,12,13.90
2009,08,08,08,13,14.00
2009,08,08,08,14,14.00
2009,08,08,08,15,14.00
2009,08,08,08,16,14.10
2009,08,08,08,17,14.10
2009,08,08,08,18,14.10
2009,08,08,08,19,14.20
2009,08,08,08,20,14.20
2009,08,08,08,21,14.20
2009,08,08,08,22,14.20
2009,08,08,08,23,14.20
2009,08,08,08,24,14.20
2009,08,08,08,25,14.30
2009,08,08,08,26,14.30
2009,08,08,08,27,14.30
2009,08,08,08,28,14.30
2009,08,08,08,29,14.40
2009,08,08,08,30,14.40
2009,08,08,08,31,14.30
2009,08,08,08,32,14.30
2009,08,08,08,33,14.30
2009,08,08,08,34,14.30
2009,08,08,08,35,14.30
2009,08,08,08,36,14.30
2009,08,08,08,37,14.30
2009,08,08,08,38,14.30
2009,08,08,08,39,14.30
2009,08,08,08,40,14.30
2009,08,08,08,41,14.30
2009,08,08,08,42,14.30
2009,08,08,08,43,14.30
2009,08,08,08,44,14.30
2009,08,08,08,45,14.30
2009,08,08,08,46,14.30
2009,08,08,08,47,14.30
2009,08,08,08,48,14.30
2009,08,08,08,49,14.30
2009,08,08,08,50,14.20
2009,08,08,08,51,14.20
2009,08,08,08,52,14.20
2009,08,08,08,53,14.20
2009,08,08,08,54,14.20
2009,08,08,08,55,14.20
2009,08,08,08,56,14.20
2009,08,08,08,57,14.20
2009,08,08,08,58,14.20
2009,08,08,08,59,14.30
2009,08,08,09,00,14.30
2009,08,08,09,01,14.30
2009,08,08,09,02,14.30
2009,08,08,09,03,14.40
2009,08,08,09,04,14.40
2009,08,08,09,05,14.50
2009,08,08,09,06,14.60
2009,08,08,09,07,14.60
2009,08,08,09,08,14.70
2009,08,08,09,09,14.70
2009,08,08,09,10,14.70
2009,08,08,09,11,14.70
2009,08,08,09,12,14.70
2009,08,08,09,13,14.70
2009,08,08,09,14,14.80
2009,08,08,09,15,14.80
2009,08,08,09,16,14.80
2009,08,08,09,17,14.80
2009,08,08,09,18,14.80
2009,08,08,09,19,14.80
2009,08,08,09,20,14.80
2009,08,08,09,21,14.80
2009,08,08,09,22,14.80
2009,08,08,09,23,14.80
2009,08,08,09,24,14.80
2009,08,08,09,25,14.80
2009,08,08,09,26,14.80
2009,08,08,09,27,14.70
2009,08,08,09,28,14.70
2009,08,08,09,29,14.60
2009,08,08,09,30,14.60
2009,08,08,09,31,14.60
2009,08,08,09,32,14.60
2009,08,08,09,33,14.60
2009,08,08,09,34,14.50
2009,08,08,09,35,14.50
2009,08,08,09,36,14.40
2009,08,08,09,37,14.40
2009,08,08,09,38,14.40
2009,08,08,09,39,14.40
2009,08,08,09,40,14.50
2009,08,08,09,41,14.50
2009,08,08,09,42,14.50
2009,08,08,09,43,14.50
2009,08,08,09,44,14.50
2009,08,08,09,45,14.60
2009,08,08,09,46,14.60
2009,08,08,09,47,14.60
2009,08,08,09,48,14.60
2009,08,08,09,49,14.60
2009,08,08,09,50,14.60
2009,08,08,09,51,14.60
2009,08,08,09,52,14.60
2009,08,08,09,53,14.60
2009,08,08,09,54,14.60
2009,08,08,09,55,14.60
2009,08,08,09,56,14.60
2009,08,08,09,57,14.60
2009,08,08,09,58,14.60
2009,08,08,09,59,14.70
2009,08,08,10,00,14.70
2009,08,08,10,01,14.70
2009,08,08,10,02,14.60
2009,08,08,10,03,14.60
2009,08,08,10,04,14.50
2009,08,08,10,05,14.50
2009,08,08,10,06,14.40
2009,08,08,10,07,14.40
2009,08,08,10,08,14.40
2009,08,08,10,09,14.50
2009,08,08,10,10,14.50
2009,08,08,10,11,14.50
2009,08,08,10,12,14.60
2009,08,08,10,13,14.60
2009,08,08,10,14,14.60
2009,08,08,10,15,14.60
2009,08,08,10,16,14.60
2009,08,08,10,17,14.60
2009,08,08,10,18,14.60
2009,08,08,10,19,14.60
2009,08,08,10,20,14.60
2009,08,08,10,21,14.60
2009,08,08,10,22,14.60
2009,08,08,10,23,14.60
2009,08,08,10,24,14.60
2009,08,08,10,25,14.60
2009,08,08,10,26,14.70
2009,08,08,10,27,14.70
2009,08,08,10,28,14.70
2009,08,08,10,29,14.70
2009,08,08,10,30,14.70
2009,08,08,10,31,14.70
2009,08,08,10,32,14.80
2009,08,08,10,33,14.80
2009,08,08,10,34,14.80
2009,08,08,10,35,14.90
2009,08,08,10,36,14.90
2009,08,08,10,37,15.00
2009,08,08,10,38,15.00
2009,08,08,10,39,14.90
2009,08,08,10,40,14.90
2009,08,08,10,41,14.80
2009,08,08,10,42,14.80
2009,08,08,10,43,14.80
2009,08,08,10,44,14.80
2009,08,08,10,45,14.70
2009,08,08,10,46,14.70
2009,08,08,10,47,14.70
2009,08,08,10,48,14.70
2009,08,08,10,49,14.70
2009,08,08,10,50,14.80
2009,08,08,10,51,14.80
2009,08,08,10,52,14.80
2009,08,08,10,53,14.90
2009,08,08,10,54,14.90
2009,08,08,10,55,14.90
2009,08,08,10,56,14.90
2009,08,08,10,57,15.00
2009,08,08,10,58,15.00
2009,08,08,10,59,15.00
2009,08,08,11,00,15.00
2009,08,08,11,01,15.00
2009,08,08,11,02,15.00
2009,08,08,11,03,15.00
2009,08,08,11,04,15.10
2009,08,08,11,05,15.20
2009,08,08,11,06,15.20
2009,08,08,11,07,15.30
2009,08,08,11,08,15.30
2009,08,08,11,09,15.30
2009,08,08,11,10,15.40
2009,08,08,11,11,15.40
2009,08,08,11,12,15.40
2009,08,08,11,13,15.40
2009,08,08,11,14,15.40
2009,08,08,11,15,15.40
2009,08,08,11,16,15.40
2009,08,08,11,17,15.30
2009,08,08,11,18,15.30
2009,08,08,11,19,15.30
2009,08,08,11,20,15.20
2009,08,08,11,21,15.20
2009,08,08,11,22,15.20
2009,08,08,11,23,15.10
2009,08,08,11,24,15.10
2009,08,08,11,25,15.20
2009,08,08,11,26,15.40
2009,08,08,11,27,15.50
2009,08,08,11,28,15.60
2009,08,08,11,29,15.70
2009,08,08,11,30,15.70
2009,08,08,11,31,15.70
2009,08,08,11,32,15.80
2009,08,08,11,33,15.80
2009,08,08,11,34,15.80
2009,08,08,11,35,15.90
2009,08,08,11,36,15.90
2009,08,08,11,37,15.90
2009,08,08,11,38,15.90
2009,08,08,11,39,15.80
2009,08,08,11,40,15.70
2009,08,08,11,41,15.60
2009,08,08,11,42,15.60
2009,08,08,11,43,15.50
2009,08,08,11,44,15.50
2009,08,08,11,45,15.50
2009,08,08,11,46,15.50
2009,08,08,11,47,15.60
2009,08,08,11,48,15.60
2009,08,08,11,49,15.70
2009,08,08,11,50,15.70
2009,08,08,11,51,15.70
2009,08,08,11,52,15.70
2009,08,08,11,53,15.70
2009,08,08,11,54,15.70
2009,08,08,11,55,15.60
2009,08,08,11,56,15.50
2009,08,08,11,57,15.40
2009,08,08,11,58,15.40
2009,08,08,11,59,15.40
2009,08,08,12,00,15.30
2009,08,08,12,01,15.30
2009,08,08,12,02,15.30
2009,08,08,12,03,15.40
2009,08,08,12,04,15.40
2009,08,08,12,05,15.50
2009,08,08,12,06,15.50
2009,08,08,12,07,15.40
2009,08,08,12,08,15.40
2009,08,08,12,09,15.50
2009,08,08,12,10,15.50
2009,08,08,12,11,15.60
2009,08,08,12,12,15.60
2009,08,08,12,13,15.60
2009,08,08,12,14,15.60
2009,08,08,12,15,15.70
2009,08,08,12,16,15.70
2009,08,08,12,17,15.70
2009,08,08,12,18,15.70
2009,08,08,12,19,15.70
2009,08,08,12,20,15.70
2009,08,08,12,21,15.80
2009,08,08,12,22,15.80
2009,08,08,12,23,15.80
2009,08,08,12,24,15.80
2009,08,08,12,25,15.80
2009,08,08,12,26,15.80
2009,08,08,12,27,15.80
2009,08,08,12,28,15.70
2009,08,08,12,29,15.80
2009,08,08,12,30,15.80
2009,08,08,12,31,15.80
2009,08,08,12,32,15.80
2009,08,08,12,33,15.80
2009,08,08,12,34,15.80
2009,08,08,12,35,15.80
2009,08,08,12,36,15.80
2009,08,08,12,37,15.90
2009,08,08,12,38,15.90
2009,08,08,12,39,15.90
2009,08,08,12,40,15.90
2009,08,08,12,41,15.90
2009,08,08,12,42,15.90
2009,08,08,12,43,15.90
2009,08,08,12,44,15.90
2009,08,08,12,45,15.90
2009,08,08,12,46,15.90
2009,08,08,12,47,15.90
2009,08,08,12,48,15.90
2009,08,08,12,49,15.90
2009,08,08,12,50,15.90
2009,08,08,12,51,15.90
2009,08,08,12,52,15.90
2009,08,08,12,53,15.80
2009,08,08,12,54,15.80
2009,08,08,12,55,15.80
2009,08,08,12,56,15.70
2009,08,08,12,57,15.80
2009,08,08,12,58,15.80
2009,08,08,12,59,15.90
2009,08,08,13,00,16.00
2009,08,08,13,01,16.10
2009,08,08,13,02,16.30
2009,08,08,13,03,16.40
2009,08,08,13,04,16.40
2009,08,08,13,05,16.50
2009,08,08,13,06,16.60
2009,08,08,13,07,16.70
2009,08,08,13,08,16.70
2009,08,08,13,09,16.70
2009,08,08,13,10,16.80
2009,08,08,13,11,16.90
2009,08,08,13,12,16.90
2009,08,08,13,13,17.00
2009,08,08,13,14,17.10
2009,08,08,13,15,17.10
2009,08,08,13,16,16.90
2009,08,08,13,17,16.90
2009,08,08,13,18,17.00
2009,08,08,13,19,17.10
2009,08,08,13,20,17.10
2009,08,08,13,21,17.10
2009,08,08,13,22,17.20
2009,08,08,13,23,17.10
2009,08,08,13,24,17.10
2009,08,08,13,25,17.10
2009,08,08,13,26,17.10
2009,08,08,13,27,17.20
2009,08,08,13,28,17.20
2009,08,08,13,29,17.30
2009,08,08,13,30,17.30
2009,08,08,13,31,17.40
2009,08,08,13,32,17.50
2009,08,08,13,33,17.70
2009,08,08,13,34,17.70
2009,08,08,13,35,17.80
2009,08,08,13,36,17.80
2009,08,08,13,37,17.90
2009,08,08,13,38,17.90
2009,08,08,13,39,17.90
2009,08,08,13,40,17.90
2009,08,08,13,41,17.90
2009,08,08,13,42,17.90
2009,08,08,13,43,17.90
2009,08,08,13,44,17.90
2009,08,08,13,45,17.90
2009,08,08,13,46,17.90
2009,08,08,13,47,17.90
2009,08,08,13,48,17.80
2009,08,08,13,49,17.70
2009,08,08,13,50,17.70
2009,08,08,13,51,17.60
2009,08,08,13,52,17.60
2009,08,08,13,53,17.60
2009,08,08,13,54,17.60
2009,08,08,13,55,17.70
2009,08,08,13,56,17.60
2009,08,08,13,57,17.60
2009,08,08,13,58,17.50
2009,08,08,13,59,17.50
2009,08,08,14,00,17.50
2009,08,08,14,01,17.50
2009,08,08,14,02,17.60
2009,08,08,14,03,17.60
2009,08,08,14,04,17.60
2009,08,08,14,05,17.50
2009,08,08,14,06,17.50
2009,08,08,14,07,17.50
2009,08,08,14,08,17.60
2009,08,08,14,09,17.70
2009,08,08,14,10,17.70
2009,08,08,14,11,17.80
2009,08,08,14,12,17.80
2009,08,08,14,13,17.80
2009,08,08,14,14,17.60
2009,08,08,14,15,17.50
2009,08,08,14,16,17.40
2009,08,08,14,17,17.30
2009,08,08,14,18,17.30
2009,08,08,14,19,17.20
2009,08,08,14,20,17.20
2009,08,08,14,21,17.20
2009,08,08,14,22,17.20
2009,08,08,14,23,17.20
2009,08,08,14,24,17.20
2009,08,08,14,25,17.20
2009,08,08,14,26,17.20
2009,08,08,14,27,17.20
2009,08,08,14,28,17.20
2009,08,08,14,29,17.20
2009,08,08,14,30,17.10
2009,08,08,14,31,17.10
2009,08,08,14,32,17.10
2009,08,08,14,33,17.10
2009,08,08,14,34,17.00
2009,08,08,14,35,16.90
2009,08,08,14,36,16.80
2009,08,08,14,37,16.80
2009,08,08,14,38,16.80
2009,08,08,14,39,16.80
2009,08,08,14,40,16.80
2009,08,08,14,41,16.80
2009,08,08,14,42,16.80
2009,08,08,14,43,16.80
2009,08,08,14,44,16.80
2009,08,08,14,45,16.80
2009,08,08,14,46,16.80
2009,08,08,14,47,16.80
2009,08,08,14,48,16.70
2009,08,08,14,49,16.60
2009,08,08,14,50,16.60
2009,08,08,14,51,16.50
2009,08,08,14,52,16.50
2009,08,08,14,53,16.50
2009,08,08,14,54,16.40
2009,08,08,14,55,16.40
2009,08,08,14,56,16.40
2009,08,08,14,57,16.30
2009,08,08,14,58,16.30
2009,08,08,14,59,16.30
2009,08,08,15,00,16.30
2009,08,08,15,01,16.40
2009,08,08,15,02,16.40
2009,08,08,15,03,16.40
2009,08,08,15,04,16.40
2009,08,08,15,05,16.40
2009,08,08,15,06,16.40
2009,08,08,15,07,16.40
2009,08,08,15,08,16.40
2009,08,08,15,09,16.50
2009,08,08,15,10,16.60
2009,08,08,15,11,16.60
2009,08,08,15,12,16.60
2009,08,08,15,13,16.70
2009,08,08,15,14,16.70
2009,08,08,15,15,16.60
2009,08,08,15,16,16.60
2009,08,08,15,17,16.60
2009,08,08,15,18,16.60
2009,08,08,15,19,16.70
2009,08,08,15,20,16.70
2009,08,08,15,21,16.70
2009,08,08,15,22,16.70
2009,08,08,15,23,16.60
2009,08,08,15,24,16.60
2009,08,08,15,25,16.60
2009,08,08,15,26,16.70
2009,08,08,15,27,16.70
2009,08,08,15,28,16.70
2009,08,08,15,29,16.70
2009,08,08,15,30,16.80
2009,08,08,15,31,16.80
2009,08,08,15,32,16.90
2009,08,08,15,33,17.00
2009,08,08,15,34,17.00
2009,08,08,15,35,17.10
2009,08,08,15,36,17.10
2009,08,08,15,37,17.10
2009,08,08,15,38,17.10
2009,08,08,15,39,17.20
2009,08,08,15,40,17.20
2009,08,08,15,41,17.40
2009,08,08,15,42,17.40
2009,08,08,15,43,17.40
2009,08,08,15,44,17.50
2009,08,08,15,45,17.50
2009,08,08,15,46,17.60
2009,08,08,15,47,17.50
2009,08,08,15,48,17.40
2009,08,08,15,49,17.40
2009,08,08,15,50,17.30
2009,08,08,15,51,17.30
2009,08,08,15,52,17.30
2009,08,08,15,53,17.20
2009,08,08,15,54,17.20
2009,08,08,15,55,17.10
2009,08,08,15,56,17.10
2009,08,08,15,57,17.10
2009,08,08,15,58,17.10
2009,08,08,15,59,17.00
2009,08,08,16,00,17.00
2009,08,08,16,01,17.00
2009,08,08,16,02,17.00
2009,08,08,16,03,17.10
2009,08,08,16,04,17.10
2009,08,08,16,05,17.10
2009,08,08,16,06,17.10
2009,08,08,16,07,17.10
2009,08,08,16,08,17.20
2009,08,08,16,09,17.20
2009,08,08,16,10,17.10
2009,08,08,16,11,17.00
2009,08,08,16,12,16.90
2009,08,08,16,13,16.90
2009,08,08,16,14,16.90
2009,08,08,16,15,16.80
2009,08,08,16,16,16.80
2009,08,08,16,17,16.70
2009,08,08,16,18,16.70
2009,08,08,16,19,16.70
2009,08,08,16,20,16.70
2009,08,08,16,21,16.70
2009,08,08,16,22,16.60
2009,08,08,16,23,16.60
2009,08,08,16,24,16.60
2009,08,08,16,25,16.50
2009,08,08,16,26,16.50
2009,08,08,16,27,16.40
2009,08,08,16,28,16.40
2009,08,08,16,29,16.40
2009,08,08,16,30,16.50
2009,08,08,16,31,16.50
2009,08,08,16,32,16.40
2009,08,08,16,33,16.30
2009,08,08,16,34,16.30
2009,08,08,16,35,16.30
2009,08,08,16,36,16.30
2009,08,08,16,37,16.30
2009,08,08,16,38,16.20
2009,08,08,16,39,16.20
2009,08,08,16,40,16.10
2009,08,08,16,41,16.00
2009,08,08,16,42,16.00
2009,08,08,16,43,16.00
2009,08,08,16,44,15.90
2009,08,08,16,45,15.90
2009,08,08,16,46,15.90
2009,08,08,16,47,15.90
2009,08,08,16,48,15.90
2009,08,08,16,49,15.90
2009,08,08,16,50,16.00
2009,08,08,16,51,16.00
2009,08,08,16,52,16.00
2009,08,08,16,53,16.10
2009,08,08,16,54,16.10
2009,08,08,16,55,16.20
2009,08,08,16,56,16.20
2009,08,08,16,57,16.30
2009,08,08,16,58,16.40
2009,08,08,16,59,16.50
2009,08,08,17,00,16.50
2009,08,08,17,01,16.60
2009,08,08,17,02,16.60
2009,08,08,17,03,16.70
2009,08,08,17,04,16.70
2009,08,08,17,05,16.70
2009,08,08,17,06,16.70
2009,08,08,17,07,16.70
2009,08,08,17,08,16.70
2009,08,08,17,09,16.80
2009,08,08,17,10,16.80
2009,08,08,17,11,16.80
2009,08,08,17,12,16.80
2009,08,08,17,13,16.90
2009,08,08,17,14,17.00
2009,08,08,17,15,17.00
2009,08,08,17,16,17.10
2009,08,08,17,17,17.20
2009,08,08,17,18,17.30
2009,08,08,17,19,17.30